Telfer, Australia

8:18 AM AWST on April 30, 2017 (GMT +0800)
Telfer

Weather History for YTEF - October, 2011

Change the Weather History Date:

Tuesday, October 18, 2011

  Actual Average Record
Temperature  
Mean Temperature 85 °F -  
Max Temperature 98 °F - - ()
Min Temperature 72 °F - - ()
Cooling Degree Days 20    
Growing Degree Days 35 (Base 50)    
Moisture  
Dew Point 55 °F    
Average Humidity 36    
Maximum Humidity 69    
Minimum Humidity 12    
Precipitation  
Precipitation 0.00 in - - ()
Sea Level Pressure  
Sea Level Pressure 29.87 in    
Wind  
Wind Speed 8 mph ()    
Max Wind Speed 14 mph    
Max Gust Speed -    
T = Trace of Precipitation, MM = Missing Value Source: Averaged Metar Reports

Daily Weather History Graph

Daily Weather History Graph

Search for Another Location

Airport or City:

Trip Planner

Search our weather history database for the weather conditions in past years. The results will help you decide how hot, cold, wet, or windy it might be!

Date:

Astronomy

Oct. 18, 2011 Rise Set
Actual Time 5:17 AM AWST 5:55 PM AWST
Civil Twilight 4:55 AM AWST 6:18 PM AWST
Nautical Twilight 4:28 AM AWST 6:44 PM AWST
Astronomical Twilight 4:01 AM AWST 7:11 PM AWST
Moon 11:10 PM AWST (10/18) 9:28 AM AWST (10/18)
Length of Visible Light 13h 23m
Length of Day
12h 37m
Waning Gibbous, 70% of the Moon is Illuminated
Oct 18
Waning Gibbous
Oct 20
Last Quarter
Oct 27
New
Nov 3
First Quarter
Nov 11
Full

Hourly Weather History & Observations

Time (AWST) Temp. Heat Index Dew Point Humidity Pressure Visibility Wind Dir Wind Speed Gust Speed Precip Events Conditions
12:00 AM 77 °F - 60 °F 47% 29.85 in - NNW 11.5 mph - -  
12:00 AM 77.0 °F - 60.8 °F 57% 29.89 in - NNW 11.5 mph - N/A   Unknown
1:00 AM 77.0 °F - 60.8 °F 57% 29.86 in - NW 8.1 mph - N/A   Unknown
2:00 AM 77 °F - 60 °F 45% 29.88 in - SE 8.1 mph - -  
2:00 AM 77.0 °F - 59.0 °F 54% 29.92 in - SE 8.1 mph - N/A   Unknown
3:00 AM 77 °F - 59 °F 44% 29.87 in - NNE 9.2 mph - -  
3:00 AM 77.0 °F - 59.0 °F 54% 29.92 in - NNE 9.2 mph - N/A   Unknown
4:00 AM 73.4 °F - 60.8 °F 65% 29.89 in - NE 5.8 mph - N/A   Unknown
5:00 AM 72 °F - 61 °F 59% 29.86 in - NNE 5.8 mph - -  
5:00 AM 71.6 °F - 60.8 °F 69% 29.92 in - NNE 5.8 mph - N/A   Unknown
6:00 AM 74 °F - 61 °F 55% 29.89 in - WNW 4.6 mph - -  
6:00 AM 73.4 °F - 60.8 °F 65% 29.92 in - WNW 4.6 mph - N/A   Unknown
7:00 AM 77.0 °F - 59.0 °F 54% 29.95 in - NW 8.1 mph - N/A   Unknown
8:00 AM 82 °F - 59 °F 35% 29.92 in - NNW 10.4 mph - -  
8:00 AM 82.4 °F 82.5 °F 59.0 °F 45% 29.98 in - NNW 10.4 mph - N/A   Unknown
9:00 AM 83 °F - 58 °F 32% 29.92 in - NW 10.4 mph - -  
9:00 AM 82.4 °F 82.0 °F 57.2 °F 42% 29.98 in - NW 10.4 mph - N/A   Unknown
10:00 AM 87.8 °F 86.5 °F 57.2 °F 35% 29.95 in - North 9.2 mph - N/A   Unknown
11:00 AM 91 °F - 55 °F 20% 29.88 in - North 13.8 mph - -  
11:00 AM 91.4 °F 89.4 °F 55.4 °F 29% 29.92 in - North 13.8 mph - N/A   Unknown
12:00 PM 95 °F - 53 °F 16% 29.84 in - North 10.4 mph - -  
12:00 PM 95.0 °F 92.7 °F 53.6 °F 25% 29.89 in - North 10.4 mph - N/A   Unknown
1:00 PM 96.8 °F - 51.8 °F 22% 29.86 in - North 10.4 mph - N/A   Unknown
2:00 PM 98 °F - 51 °F 12% 29.78 in - NNW 8.1 mph - -  
2:00 PM 98.6 °F - 51.8 °F 21% 29.83 in - NNW 8.1 mph - N/A   Unknown
3:00 PM 98 °F - 51 °F 12% 29.77 in - NNW 8.1 mph - -  
3:00 PM 96.8 °F - 51.8 °F 22% 29.83 in - NNW 8.1 mph - N/A   Unknown
4:00 PM 96.8 °F - 50.0 °F 20% 29.80 in - North 10.4 mph - N/A   Unknown
5:00 PM 96 °F - 49 °F 12% 29.78 in - NNW 9.2 mph - -  
5:00 PM 95.0 °F - 50.0 °F 22% 29.83 in - NNW 9.2 mph - N/A   Unknown
6:00 PM 94 °F - 49 °F 13% 29.80 in - WNW 8.1 mph - -  
6:00 PM 93.2 °F - 48.2 °F 21% 29.83 in - WNW 8.1 mph - N/A   Unknown
7:00 PM 91.4 °F - 50.0 °F 24% 29.86 in - WNW 4.6 mph - N/A   Unknown
8:00 PM 88 °F - 51 °F 19% 29.83 in - NE 4.6 mph - -  
8:00 PM 87.8 °F - 51.8 °F 29% 29.89 in - NE 4.6 mph - N/A   Unknown
9:00 PM 85 °F - 51 °F 21% 29.85 in - NW 5.8 mph - -  
9:00 PM 86.0 °F - 51.8 °F 31% 29.89 in - NW 5.8 mph - N/A   Unknown
10:00 PM 82.4 °F 81.7 °F 55.4 °F 39% 29.89 in - NNW 9.2 mph - N/A   Unknown
11:00 PM 80 °F - 57 °F 35% 29.85 in - NNW 6.9 mph - -  
11:00 PM 80.6 °F 80.8 °F 57.2 °F 45% 29.89 in - NNW 6.9 mph - N/A   Unknown